Starlink 35131

operational
NORAD ID: 66075 Int'l Des: 2025-235 Owner: SPXS Country: US Constellation: starlink
NOTLE

About Starlink 35131

Description loading...

Live Position

Loading 3D Globe...

Upcoming Passes

Altitude History

Altitude vs Time

uPlot chart will show altitude changes over time

Two-Line Element Set

1 66075U 25235T 25310.91668981 -.01928814 00000-0 -26541-1 0 9994
2 66075 53.1596 98.4258 0000680 70.3147 289.0675 15.60016258 4114
Epoch: Nov 6, 2025 • Age: 5 hours

Current Status

Altitude 389.9 km
Velocity 7.68 km/s
Sub-Earth Point 10.17°N, 18.52°E
Launch Date Oct 19, 2025
Age 18 days
Type internet

Technical Details

Classification Payload
Mass 575.00 kg
Dry Mass 530.00 kg
Total Mass 575.00 kg
Length 0.30 m
Diameter 4.10 m
Span 29.00 m
Shape Box + pan
Manufacturer SPXS
Bus Type Starlink V2MO
Phase Status In Orbit
Owner/State SPXS/US

Large Constellations

Loading constellations...